Terug naar catalogus

LKW-2

ActiefMilitairSSO
NORAD 43080·PAYLOAD·🇨🇳 China

Gelanceerd Dec 23, 2017 vanaf Jiuquan Satellite Launch Center

Loading…

Volgende Passages (komende 24 uur)

TLE

VersSource: Space-Track

Epoch: Sep 14, 2026, 14:47 UTC

1 43080U 17084A   26257.61610034  .00004143  00000-0  15730-3 0  9999
2 43080  97.1120 293.2606 0000516 355.0898   5.0336 15.27350308485339

Volg LKW-2 in realtime met AllMySat

Download on the App Store